Regional Weather Roundup
Issued by NWS Newport/Morehead, NC

Home | Current Version | Previous Version | Text Only | Print | Product List | Glossary On
Versions: 1 2 3 4 5 6 7 8 9 10 11 12 13 14 15 16 17 18 19 20 21 22 23 24 25 26 27 28 29 30 31 32 33 34 35 36 37 38 39 40 41 42 43 44 45 46 47 48 49 50
000
ASUS42 KMHX 040025
RWRMHX
WEATHER ROUNDUP FOR EASTERN NORTH CAROLINA
NATIONAL WEATHER SERVICE NEWPORT/MOREHEAD CITY NC
800 PM EDT FRI APR 03 2020

NOTE: "FAIR" INDICATES FEW OR NO CLOUDS BELOW 12,000 FEET
WITH NO SIGNIFICANT WEATHER AND/OR OBSTRUCTIONS TO VISIBILITY

NCZ015>017-031-032-045>047-102-103-040100-
NORTH COAST

CITY           SKY/WX    TMP DP  RH WIND       PRES   REMARKS
EDENTON        NOT AVBL
ELIZABETH CITY FAIR      61  37  41 NE12      29.80R
KITTY HAWK     FAIR      53  41  65 N6        29.80R
MANTEO         FAIR      54  40  60 NE13      29.81R

$$

NCZ045>047-081-094-103-104-040100-
CENTRAL COAST

CITY           SKY/WX    TMP DP  RH WIND       PRES   REMARKS
FRISCO         FAIR      58  41  53 NE3       29.80R

$$

NCZ095-097-098-100-101-040100-
SOUTHERN COAST

CITY           SKY/WX    TMP DP  RH WIND       PRES   REMARKS
BEAUFORT       FAIR      63  38  39 N5        29.82R
CEDAR ISLAND   NOT AVBL
JACKSONVILLE   FAIR      61  26  26 W7        29.82R
PINEY ISLAND   NOT AVBL
WILMINGTON     FAIR      66  26  22 NW5       29.84R


$$

NCZ011>013-027>030-043-044-078>080-089-090>093-098-040100-
COASTAL PLAIN

CITY           SKY/WX    TMP DP  RH WIND       PRES   REMARKS
AHOSKIE        NOT AVBL
CLINTON        FAIR      62  34  34 CALM      29.85R
ELIZABETHTOWN  FAIR      61  32  33 W5        29.86R
GOLDSBORO      FAIR      65  27  23 W5        29.80S
GREENVILLE     FAIR      64  27  24 CALM      29.84R
HAVELOCK       FAIR      64  27  24 W6        29.82R
KENANSVILLE    FAIR      57  36  44 CALM      29.83R HAZE
KINSTON        CLEAR     55  37  50 CALM      29.83R
NEW BERN       FAIR      62  29  28 W3        29.82R
RICHLANDS      FAIR      59  31  34 SW3       29.83S
ROCKY MOUNT    FAIR      65  27  23 W3        29.82R
WASHINGTON     FAIR      61  27  27 CALM      29.81R
WHITEVILLE     NOT AVBL

$$

AMZ130-135-150-152-154-156-158-170-250-252-270-ANZ085-086-088-633-658-670-040100-
MARINE OBSERVATIONS

STATION/POSITION TIME  TEMP    WIND        PRES    WAVE   SWELL
                       AIR SEA DIR/SP/G            HT/PER HT/PER
                 (UTC) (F)     (DEG/KT/KT) (MB)    (FT/S) (FT/S)
64 E VA BEACH    NOT AVBL
DUCK             2348   54      20/ 15/ 18 1008.4
2 E DUCK         0000      52                N/A     3/12   2/12
10 NE DUCK       0000      51                N/A     4/ 6   2/13
OREGON INLET     2336   54 56   10/  5/  7 1008.7
13E OREGON INLT  NOT AVBL
HATTERAS CG      2348   58 60   50/  9/ 13 1009.0
DIAMOND BUOY     0010   56 56   40/  4/  6   N/A
CAPE LOOKOUT     0000   64     310/  7/  7 1009.9
BEAUFORT LAB     2348   64 60  320/  2/  5 1009.8
30 SE NEW RVR IN 2308   67 68  310/ 12/ 16 1009.2
30 SE NEW RVR IN 0000      67                N/A     3/10   2/11
27 SE WRIGHTSVLE 0008      65  330/  8/ 12 1009.4
5 SE WRIGHTSVLE  0008   64 62  300/  4/  6 1010.4
27 SE WRIGHTSVL  0008      65  330/  8/ 12 1009.4
FRYING PAN BUOY  0010   68 71  280/ 12/ 16 1011.0
225 S CAPE HAT   0010   68     300/ 21/ 25 1010.6
41 SE CHARLESTON 0010   69 70              1012.1

$$




USA.gov is the U.S. government's official web portal to all federal, state and local government web resources and services.